EW1845 Weather Reports


Display with metric or nautical units.
time (UTC)temp
F
wind
direction
speed
MPH
gust
MPH
rain 1hr
in
rain 24hr
in
rain mn
in
humidity
%
barometer
mb
20260510081509 56 53 0.0 0.0 0.00 0.00 0.00 95 1012.1
20260510081428 56 52 0.0 0.0 0.00 0.00 0.00 95 1012.0
20260510080403 56 53 0.0 0.0 0.00 0.00 0.00 95 1012.1
20260510080008 55 53 0.0 0.0 0.00 0.00 0.00 95 1012.3
20260510075357 56 52 0.0 0.0 0.00 0.00 0.00 95 1012.2
20260510074607 55 53 0.0 1.0 0.00 0.00 0.00 95 1012.3
20260510074415 56 51 0.0 0.0 0.00 0.00 0.00 95 1012.2
20260510073429 55 186 0.0 0.0 0.00 0.00 0.00 95 1012.4
20260510073002 55 186 0.0 0.0 0.00 0.00 0.00 95 1012.4
20260510072406 55 186 0.0 0.0 0.00 0.00 0.00 95 1012.2
20260510071602 54 186 0.0 0.0 0.00 0.00 0.00 95 1012.3
20260510071351 55 186 0.0 0.0 0.00 0.00 0.00 95 1012.3
20260510070345 55 186 0.0 0.0 0.00 0.00 0.00 95 1012.2
20260510070109 54 186 0.0 0.0 0.00 0.00 0.00 95 1012.2
20260510065402 55 186 0.0 0.0 0.00 0.00 0.00 94 1012.1
20260510064507 54 186 0.0 0.0 0.00 0.00 0.00 94 1012.3
20260510064342 55 186 0.0 0.0 0.00 0.00 0.00 94 1012.2
20260510063355 56 186 0.0 0.0 0.00 0.00 0.00 94 1012.3
20260510063106 55 186 0.0 0.0 0.00 0.00 0.00 94 1012.4
20260510062336 56 186 0.0 0.0 0.00 0.00 0.00 95 1012.2
20260510061504 55 186 0.0 0.0 0.00 0.00 0.00 93 1012.3
20260510061322 56 186 0.0 0.0 0.00 0.00 0.00 93 1012.2
20260510060334 56 186 0.0 0.0 0.00 0.00 0.00 95 1012.2
20260510060011 55 186 0.0 0.0 0.00 0.00 0.00 95 1012.3
20260510055348 55 186 0.0 0.0 0.00 0.00 0.00 94 1012.3
20260510054604 55 186 0.0 0.0 0.00 0.00 0.00 93 1012.3
20260510054345 55 186 0.0 0.0 0.00 0.00 0.00 93 1012.2
20260510053312 56 186 0.0 0.0 0.00 0.00 0.00 94 1012.3
20260510053004 55 186 0.0 0.0 0.00 0.00 0.00 94 1012.4
20260510052318 56 186 0.0 0.0 0.00 0.00 0.00 94 1012.3
20260510051610 55 186 0.0 0.0 0.00 0.00 0.00 93 1012.4
20260510051321 56 186 0.0 0.0 0.00 0.00 0.00 93 1012.4
20260510050318 56 186 0.0 0.0 0.00 0.00 0.00 94 1012.4
20260510050114 55 186 0.0 0.0 0.00 0.00 0.00 93 1012.4
20260510044505 55 186 0.0 0.0 0.00 0.00 0.00 92 1012.2
20260510044227 56 186 0.0 0.0 0.00 0.00 0.00 93 1012.1
20260510043248 56 186 0.0 0.0 0.00 0.00 0.00 92 1012.1
20260510043102 55 186 0.0 0.0 0.00 0.00 0.00 92 1012.1
20260510042257 56 186 0.0 0.0 0.00 0.00 0.00 91 1012.0
20260510041502 56 186 0.0 0.0 0.00 0.00 0.00 92 1012.0
20260510041305 57 186 0.0 0.0 0.00 0.00 0.00 92 1011.9
20260510040312 57 186 0.0 0.0 0.00 0.00 0.00 91 1011.9
20260510040003 57 186 0.0 0.0 0.00 0.00 0.00 91 1011.9
20260510034606 57 186 0.0 0.0 0.00 0.00 0.00 90 1011.7
20260510034121 58 186 0.0 0.0 0.00 0.00 0.00 90 1011.5
20260510033108 59 186 0.0 0.0 0.00 0.00 0.00 90 1011.5
20260510033003 58 186 0.0 1.0 0.00 0.00 0.00 90 1011.5
20260510032107 59 227 0.0 0.0 0.00 0.00 0.00 90 1011.4
20260510031610 59 193 0.0 3.0 0.00 0.00 0.00 90 1011.3
20260510030107 59 249 0.0 3.0 0.00 0.00 0.00 89 1011.1
20260510030009 60 248 0.0 0.0 0.00 0.00 0.00 89 1011.1
20260510025013 60 219 0.0 2.0 0.00 0.00 0.00 88 1011.0
20260510024502 60 156 0.0 2.0 0.00 0.00 0.00 87 1011.0
20260510023940 61 176 0.0 1.0 0.00 0.00 0.00 87 1010.9
20260510023102 61 129 0.0 3.0 0.00 0.00 0.00 86 1010.9
20260510023003 61 144 0.0 0.0 0.00 0.00 0.00 86 1010.9
20260510021506 62 139 1.0 2.0 0.00 0.00 0.00 85 1010.8
20260510020827 62 210 0.0 0.0 0.00 0.00 0.00 84 1010.6
20260510020002 62 147 0.0 3.0 0.00 0.00 0.00 84 1010.7
20260510015823 63 213 0.0 3.0 0.00 0.00 0.00 83 1010.6
20260510014604 63 168 1.0 3.0 0.00 0.00 0.00 82 1010.7
20260510013655 64 240 1.0 4.0 0.00 0.00 0.00 81 1010.6
20260510013002 64 212 1.0 5.0 0.00 0.00 0.00 81 1010.5
20260510012658 65 240 1.0 4.0 0.00 0.00 0.00 80 1010.5
20260510011626 65 165 1.0 6.0 0.00 0.00 0.00 79 1010.5
20260510011606 65 165 1.0 5.0 0.00 0.00 0.00 79 1010.6
20260510010611 66 212 1.0 6.0 0.00 0.00 0.00 79 1010.5
20260510005557 67 213 2.0 5.0 0.00 0.00 0.00 77 1010.5
20260510004504 67 263 2.0 5.0 0.00 0.00 0.00 75 1010.5
20260510003447 68 233 2.0 4.0 0.00 0.00 0.00 74 1010.4
20260510003103 68 199 3.0 6.0 0.00 0.00 0.00 74 1010.5
20260510002442 69 201 2.0 6.0 0.00 0.00 0.00 72 1010.5
20260510001506 69 153 1.0 5.0 0.00 0.00 0.00 72 1010.5
20260510001413 70 153 2.0 7.0 0.00 0.00 0.00 73 1010.4
20260510000341 69 205 2.0 7.0 0.00 0.00 0.00 71 1010.6
20260510000004 69 259 2.0 7.0 0.00 0.00 0.00 71 1010.6
20260509235339 70 230 2.0 6.0 0.00 0.00 0.00 70 1010.5
20260509234630 70 281 2.0 7.0 0.00 0.00 0.00 70 1010.6
20260509233211 71 243 3.0 8.0 0.00 0.00 0.00 67 1010.5
20260509233007 71 220 2.0 9.0 0.00 0.00 0.00 69 1010.6
20260509232143 72 165 2.0 9.0 0.00 0.00 0.00 67 1010.5
20260509231613 72 245 2.0 10.0 0.00 0.00 0.00 67 1010.6
20260509231148 72 257 2.0 9.0 0.00 0.00 0.00 67 1010.5
20260509230140 73 214 2.0 8.0 0.00 0.00 0.00 66 1010.6
20260509230108 73 241 3.0 9.0 0.00 0.00 0.00 66 1010.6
20260509225114 73 213 2.0 7.0 0.00 0.00 0.00 65 1010.6
20260509224503 73 197 1.0 7.0 0.00 0.00 0.00 66 1010.7
20260509223103 73 232 5.0 11.0 0.00 0.00 0.00 64 1010.9
20260509221833 74 153 3.0 7.0 0.00 0.00 0.00 64 1011.1
20260509221503 73 238 4.0 8.0 0.00 0.00 0.00 64 1011.2
20260509220826 74 206 2.0 6.0 0.00 0.00 0.00 63 1011.2
20260509220004 74 238 2.0 8.0 0.00 0.00 0.00 63 1011.4
20260509214645 74 254 3.0 7.0 0.00 0.00 0.00 64 1011.3
20260509214506 74 197 2.0 8.0 0.00 0.00 0.00 64 1011.4
20260509213641 74 252 3.0 7.0 0.00 0.00 0.00 64 1011.5
20260509213101 74 188 4.0 9.0 0.00 0.00 0.00 63 1011.6
20260509212701 75 174 3.0 8.0 0.00 0.00 0.00 62 1011.6
20260509211502 73 203 4.0 8.0 0.00 0.00 0.00 65 1011.7
20260509210003 73 230 3.0 9.0 0.00 0.00 0.00 65 1011.8
20260509205403 74 188 3.0 10.0 0.00 0.00 0.00 67 1011.8
20260509204603 73 233 4.0 11.0 0.00 0.00 0.00 65 1012.0
20260509204403 73 247 4.0 10.0 0.00 0.00 0.00 66 1012.0
20260509203423 73 212 4.0 9.0 0.00 0.00 0.00 67 1012.0
20260509203002 73 252 3.0 8.0 0.00 0.00 0.00 65 1012.1
20260509202408 74 203 3.0 8.0 0.00 0.00 0.00 65 1012.0
20260509201604 74 233 4.0 9.0 0.00 0.00 0.00 65 1012.1
20260509200221 73 232 3.0 11.0 0.00 0.00 0.00 66 1012.1
20260509200109 73 248 4.0 8.0 0.00 0.00 0.00 66 1012.2
20260509195233 73 217 3.0 11.0 0.00 0.00 0.00 67 1012.2
20260509194504 73 234 2.0 9.0 0.00 0.00 0.00 69 1012.2
20260509194244 73 214 3.0 9.0 0.00 0.00 0.00 67 1012.1
20260509193310 72 292 4.0 9.0 0.00 0.00 0.00 69 1012.3
20260509193102 72 204 4.0 10.0 0.00 0.00 0.00 68 1012.3
20260509192240 73 200 3.0 8.0 0.00 0.00 0.00 66 1012.3
20260509191503 73 257 2.0 9.0 0.00 0.00 0.00 68 1012.4
20260509191257 73 160 3.0 8.0 0.00 0.00 0.00 68 1012.4
20260509190244 73 215 3.0 8.0 0.00 0.00 0.00 69 1012.6
20260509190007 72 158 4.0 9.0 0.00 0.00 0.00 68 1012.7
20260509185215 72 154 2.0 5.0 0.00 0.00 0.00 69 1012.6
20260509184610 71 200 2.0 6.0 0.00 0.00 0.00 69 1012.7
20260509183017 71 240 3.0 7.0 0.00 0.00 0.00 72 1012.7
20260509183002 70 176 3.0 8.0 0.00 0.00 0.00 72 1012.8
20260509181959 71 250 1.0 4.0 0.00 0.00 0.00 71 1012.8
20260509181608 71 155 3.0 5.0 0.00 0.00 0.00 71 1012.9
20260509181018 70 192 2.0 6.0 0.00 0.00 0.00 72 1012.9
20260509180105 69 202 2.0 5.0 0.00 0.00 0.00 73 1013.0
20260509180031 70 276 1.0 4.0 0.00 0.00 0.00 72 1012.9
20260509175051 69 229 2.0 5.0 0.00 0.00 0.00 74 1013.0
20260509174503 68 213 3.0 6.0 0.00 0.00 0.00 75 1013.1
20260509173103 68 238 3.0 8.0 0.00 0.00 0.00 76 1013.1
20260509172911 68 203 1.0 5.0 0.00 0.00 0.00 76 1013.0
20260509171924 68 249 1.0 4.0 0.00 0.00 0.00 77 1013.0
20260509171501 67 234 2.0 5.0 0.00 0.00 0.00 77 1013.0
20260509170003 66 206 4.0 7.0 0.00 0.00 0.00 78 1012.9
20260509165805 67 196 2.0 5.0 0.00 0.00 0.00 79 1012.8
20260509164813 66 208 2.0 5.0 0.00 0.00 0.00 80 1012.8
20260509164610 66 181 3.0 6.0 0.00 0.00 0.00 80 1012.9
20260509163758 65 214 1.0 2.0 0.00 0.00 0.00 82 1012.8
20260509163002 65 231 2.0 4.0 0.00 0.00 0.00 82 1012.9
20260509162803 65 171 1.0 4.0 0.00 0.00 0.00 83 1012.9
20260509161745 65 227 0.0 1.0 0.00 0.00 0.00 84 1013.0
20260509161603 64 161 0.0 3.0 0.00 0.00 0.00 85 1013.0
20260509160741 63 219 0.0 1.0 0.00 0.00 0.00 86 1013.0
20260509160105 62 203 0.0 1.0 0.00 0.00 0.00 88 1013.1
20260509154610 62 202 1.0 2.0 0.00 0.00 0.00 89 1013.2
20260509154503 61 224 1.0 3.0 0.00 0.00 0.00 89 1013.1
20260509153103 60 46 0.0 3.0 0.00 0.00 0.00 90 1013.3
20260509152454 61 25 0.0 2.0 0.00 0.00 0.00 90 1013.2
20260509151503 60 141 0.0 3.0 0.00 0.00 0.00 91 1013.2
20260509151458 60 141 0.0 2.0 0.00 0.00 0.00 91 1013.1
20260509150503 60 328 0.0 0.0 0.00 0.00 0.00 92 1013.2
20260509150002 59 6 0.0 1.0 0.00 0.00 0.00 92 1013.2
20260509144604 59 61 0.0 1.0 0.00 0.00 0.00 94 1013.2
20260509143152 59 203 0.0 0.0 0.00 0.00 0.00 94 1013.0
20260509143002 58 203 0.0 2.0 0.00 0.00 0.00 94 1013.0
20260509142131 59 202 0.0 0.0 0.00 0.00 0.00 94 1013.0
20260509141604 58 200 0.0 2.0 0.00 0.00 0.00 94 1013.1
20260509141130 59 197 0.0 0.0 0.00 0.00 0.00 94 1013.0
20260509140144 58 27 0.0 0.0 0.00 0.00 0.00 95 1013.0
20260509140107 58 28 0.0 2.0 0.00 0.00 0.00 95 1013.0
20260509135202 58 43 0.0 1.0 0.00 0.00 0.00 95 1012.9
20260509134502 58 42 0.0 1.0 0.00 0.00 0.00 95 1012.9
20260509134138 58 42 0.0 0.0 0.00 0.00 0.00 95 1012.8
20260509133120 58 43 0.0 0.0 0.00 0.00 0.00 95 1012.7
20260509133107 57 42 0.0 3.0 0.00 0.00 0.00 95 1012.8
20260509132137 58 45 0.0 1.0 0.00 0.00 0.00 95 1012.6
20260509131502 57 34 1.0 2.0 0.00 0.00 0.00 95 1012.7
20260509131146 58 35 0.0 1.0 0.00 0.00 0.00 95 1012.6
20260509130124 58 41 0.0 2.0 0.00 0.00 0.00 95 1012.6
20260509130003 57 40 1.0 3.0 0.00 0.00 0.00 95 1012.6
20260509124603 57 37 0.0 3.0 0.00 0.00 0.00 95 1012.6
20260509123931 58 14 0.0 2.0 0.00 0.00 0.00 95 1012.5
20260509123002 57 43 0.0 2.0 0.00 0.00 0.00 95 1012.6
20260509122948 58 44 0.0 1.0 0.00 0.00 0.00 95 1012.5
20260509120733 57 49 0.0 0.0 0.00 0.00 0.00 95 1012.3
20260509120108 57 49 0.0 2.0 0.00 0.00 0.00 95 1012.4
20260509115756 57 34 0.0 0.0 0.00 0.00 0.00 95 1012.4
20260509114508 57 45 1.0 2.0 0.00 0.00 0.00 95 1012.5
20260509113654 57 54 0.0 0.0 0.00 0.00 0.00 95 1012.5
20260509113110 57 53 0.0 1.0 0.00 0.00 0.00 95 1012.5
20260509112642 57 54 0.0 0.0 0.00 0.00 0.00 95 1012.4
20260509111647 57 53 0.0 0.0 0.00 0.00 0.00 95 1012.5
20260509111505 57 53 0.0 2.0 0.00 0.00 0.00 95 1012.6
20260509110708 58 157 0.0 0.0 0.00 0.00 0.00 95 1012.5
20260509110002 57 155 1.0 2.0 0.00 0.00 0.00 95 1012.6
20260509105647 58 210 0.0 0.0 0.00 0.00 0.00 95 1012.6
20260509104602 57 40 0.0 0.0 0.00 0.00 0.00 95 1012.6
20260509103004 57 356 0.0 1.0 0.00 0.00 0.00 95 1012.5
20260509102310 58 354 0.0 0.0 0.00 0.00 0.00 95 1012.5
20260509101256 58 354 0.0 0.0 0.00 0.00 0.00 95 1012.6
20260509100241 58 14 0.0 3.0 0.00 0.00 0.00 95 1012.7
20260509095219 58 46 0.0 0.0 0.00 0.00 0.00 95 1012.8
20260509094502 57 323 0.0 0.0 0.00 0.00 0.00 95 1012.9
20260509094211 57 323 0.0 0.0 0.00 0.00 0.00 95 1012.8
20260509093236 58 316 0.0 0.0 0.00 0.00 0.00 95 1012.9
20260509093102 57 316 0.0 0.0 0.00 0.00 0.00 95 1012.9
20260509092234 57 316 0.0 0.0 0.00 0.00 0.00 95 1012.9
20260509091502 57 49 0.0 1.0 0.00 0.00 0.00 95 1013.0
20260509091240 57 49 0.0 0.0 0.00 0.00 0.00 95 1012.9
20260509090233 57 49 0.0 0.0 0.00 0.00 0.00 95 1013.0
20260509090006 57 49 0.0 1.0 0.00 0.00 0.00 95 1013.0
20260509085254 57 49 0.0 0.0 0.00 0.00 0.00 95 1013.0
20260509084606 57 49 0.0 1.0 0.00 0.00 0.00 95 1013.1
20260509084254 57 49 0.0 0.0 0.00 0.00 0.00 95 1013.1
20260509083316 57 49 0.0 1.0 0.00 0.00 0.00 95 1013.1
20260509083007 57 49 0.0 2.0 0.00 0.00 0.00 95 1013.1